EW8292 Weather Reports


Display with metric or nautical units.
time (UTC)temp
F
wind
direction
speed
MPH
gust
MPH
rain 1hr
in
rain 24hr
in
rain mn
in
humidity
%
barometer
mb
20260507115006 52 105 0.0 0.0 0.00 0.00 0.00 91 1012.1
20260507114524 52 205 0.0 0.0 0.00 0.00 0.00 91 1012.1
20260507114006 52 237 0.0 0.0 0.00 0.00 0.00 92 1012.1
20260507113531 52 174 0.0 0.0 0.00 0.00 0.00 92 1012.0
20260507113049 52 184 0.0 0.0 0.00 0.00 0.00 92 1012.0
20260507112538 52 180 0.0 0.0 0.00 0.00 0.00 93 1012.2
20260507112052 52 180 0.0 0.0 0.00 0.00 0.00 93 1012.1
20260507111541 52 180 0.0 0.0 0.00 0.00 0.00 93 1012.1
20260507111055 52 180 0.0 0.0 0.00 0.00 0.00 93 1012.2
20260507110521 52 179 0.0 0.0 0.00 0.00 0.00 93 1012.0
20260507110100 52 180 0.0 0.0 0.00 0.00 0.00 93 1011.9
20260507105524 52 180 0.0 0.0 0.00 0.00 0.00 93 1011.9
20260507105059 52 179 0.0 0.0 0.00 0.00 0.00 93 1011.9
20260507105001 52 179 0.0 0.0 0.00 0.00 0.00 93 1011.9
20260507104526 52 179 0.0 0.0 0.00 0.00 0.00 93 1011.8
20260507104042 52 179 0.0 0.0 0.00 0.00 0.00 93 1011.9
20260507103523 52 179 0.0 0.0 0.00 0.00 0.00 93 1011.8
20260507103046 52 179 0.0 0.0 0.00 0.00 0.00 93 1011.8
20260507102509 52 179 0.0 0.0 0.00 0.00 0.00 93 1011.5
20260507102047 52 180 0.0 0.0 0.00 0.00 0.00 93 1011.5
20260507101517 52 179 0.0 0.0 0.00 0.00 0.00 93 1011.4
20260507101049 52 179 0.0 0.0 0.00 0.00 0.00 93 1011.4
20260507100511 52 179 0.0 0.0 0.00 0.00 0.00 93 1011.2
20260507100035 52 179 0.0 0.0 0.00 0.00 0.00 93 1011.3
20260507095514 52 179 0.0 0.0 0.00 0.00 0.00 93 1011.4
20260507095036 52 179 0.0 0.0 0.00 0.00 0.00 93 1011.3
20260507094602 52 179 0.0 0.0 0.00 0.00 0.00 93 1011.3
20260507094041 52 179 0.0 0.0 0.00 0.00 0.00 93 1011.3
20260507093505 52 179 0.0 0.0 0.00 0.00 0.00 93 1011.0
20260507093045 52 179 0.0 0.0 0.00 0.00 0.00 93 1011.1
20260507092509 52 179 0.0 0.0 0.00 0.00 0.00 93 1011.2
20260507092032 52 179 0.0 0.0 0.00 0.00 0.00 93 1011.2
20260507091533 52 179 0.0 0.0 0.00 0.00 0.00 93 1011.4
20260507091037 53 179 0.0 0.0 0.00 0.00 0.00 93 1011.3
20260507090518 53 176 0.0 0.0 0.00 0.00 0.00 93 1011.4
20260507090055 53 176 0.0 0.0 0.00 0.00 0.00 93 1011.3
20260507085521 53 176 0.0 0.0 0.00 0.00 0.00 93 1011.1
20260507085053 53 176 0.0 0.0 0.00 0.00 0.00 93 1011.0
20260507084539 53 176 0.0 0.0 0.00 0.00 0.00 93 1010.9
20260507084057 53 176 0.0 0.0 0.00 0.00 0.00 93 1010.9
20260507083523 53 176 0.0 0.0 0.00 0.00 0.00 92 1010.9
20260507083003 53 176 0.0 0.0 0.00 0.00 0.00 92 1010.8
20260507082522 53 176 0.0 0.0 0.00 0.00 0.00 92 1010.8
20260507082043 53 176 0.0 0.0 0.00 0.00 0.00 92 1010.6
20260507081531 53 176 0.0 0.0 0.00 0.00 0.00 92 1010.5
20260507081045 53 176 0.0 0.0 0.00 0.00 0.00 92 1010.4
20260507080533 53 177 0.0 0.0 0.00 0.00 0.00 92 1010.3
20260507080051 53 166 0.0 0.0 0.00 0.00 0.00 92 1010.4
20260507075515 53 166 0.0 0.0 0.00 0.00 0.00 92 1010.3
20260507075039 53 166 0.0 0.0 0.00 0.00 0.00 91 1010.3
20260507074521 53 217 0.0 0.0 0.00 0.00 0.00 91 1010.3
20260507074045 53 213 0.0 0.0 0.00 0.00 0.00 91 1010.2
20260507073509 53 191 0.0 0.0 0.00 0.00 0.00 91 1010.0
20260507073058 53 186 0.0 0.0 0.00 0.00 0.00 91 1010.0
20260507072509 53 181 0.0 0.0 0.00 0.00 0.00 90 1010.2
20260507072033 54 176 0.0 0.0 0.00 0.00 0.00 90 1010.1
20260507071509 54 141 0.0 6.0 0.00 0.00 0.00 90 1010.1
20260507071029 54 198 0.0 4.0 0.00 0.00 0.00 91 1010.1
20260507070549 54 182 0.0 2.0 0.00 0.00 0.00 91 1010.2
20260507070030 54 192 0.0 2.0 0.00 0.00 0.00 91 1010.2
20260507065553 54 198 0.0 1.0 0.00 0.00 0.00 91 1010.1
20260507065038 54 183 0.0 8.0 0.00 0.00 0.00 92 1010.3
20260507064553 55 197 0.0 8.0 0.00 0.00 0.00 92 1010.2
20260507064015 55 243 0.0 0.0 0.00 0.00 0.00 93 1010.3
20260507063537 55 233 0.0 0.0 0.00 0.00 0.00 93 1010.4
20260507063017 55 217 0.0 1.0 0.00 0.00 0.00 93 1010.1
20260507062538 55 189 0.0 0.0 0.00 0.00 0.00 93 1010.0
20260507062019 55 259 0.0 0.0 0.00 0.00 0.00 93 1010.0
20260507061541 55 210 0.0 0.0 0.00 0.00 0.00 93 1009.8
20260507061018 55 198 0.0 0.0 0.00 0.00 0.00 93 1010.1
20260507060540 55 212 0.0 0.0 0.00 0.00 0.00 93 1010.2
20260507060029 55 198 0.0 0.0 0.00 0.00 0.00 93 1010.4
20260507055539 55 198 0.0 0.0 0.00 0.00 0.00 93 1010.1
20260507055024 55 196 0.0 0.0 0.00 0.00 0.00 93 1010.2
20260507054549 55 203 0.0 0.0 0.00 0.00 0.00 92 1010.3
20260507054011 55 229 0.0 0.0 0.00 0.00 0.00 92 1010.4
20260507053543 56 229 0.0 0.0 0.00 0.00 0.00 92 1010.1
20260507053006 56 229 0.0 0.0 0.00 0.00 0.00 92 1010.4
20260507052527 56 193 0.0 0.0 0.00 0.00 0.00 92 1010.5
20260507052009 56 218 0.0 0.0 0.00 0.00 0.00 91 1010.5
20260507051535 56 218 0.0 0.0 0.00 0.00 0.00 91 1010.4
20260507051014 56 180 0.0 0.0 0.00 0.00 0.00 91 1010.3
20260507050534 56 232 0.0 0.0 0.00 0.00 0.00 90 1010.5
20260507050056 57 229 0.0 1.0 0.00 0.00 0.00 90 1010.6
20260507045537 57 273 0.0 1.0 0.00 0.00 0.00 89 1010.5
20260507045059 57 186 0.0 1.0 0.00 0.00 0.00 88 1010.3
20260507045002 58 166 0.0 1.0 0.00 0.00 0.00 88 1010.4
20260507044547 58 206 0.0 1.0 0.00 0.00 0.00 88 1010.4
20260507044017 58 230 0.0 1.0 0.00 0.00 0.00 87 1010.2
20260507043530 59 184 0.0 0.0 0.00 0.00 0.00 87 1010.2
20260507043011 59 116 0.0 9.0 0.00 0.00 0.00 87 1010.2
20260507042535 59 151 0.0 9.0 0.00 0.00 0.00 86 1010.3
20260507042054 59 192 0.0 1.0 0.00 0.00 0.00 86 1010.3
20260507041537 60 192 0.0 6.0 0.00 0.00 0.00 86 1010.2
20260507041054 60 103 0.0 6.0 0.00 0.00 0.00 85 1010.2
20260507040539 61 200 0.0 0.0 0.00 0.00 0.00 85 1010.2
20260507040017 61 201 0.0 0.0 0.00 0.00 0.00 85 1009.7
20260507035549 61 227 0.0 0.0 0.00 0.00 0.00 84 1009.6
20260507035011 61 210 0.0 0.0 0.00 0.00 0.00 84 1009.6
20260507034532 61 225 0.0 0.0 0.00 0.00 0.00 83 1009.6
20260507034008 62 230 0.0 0.0 0.00 0.00 0.00 83 1009.4
20260507033537 62 166 0.0 1.0 0.00 0.00 0.00 83 1009.3
20260507033056 62 200 0.0 1.0 0.00 0.00 0.00 83 1009.6
20260507032537 62 98 0.0 0.0 0.00 0.00 0.00 83 1009.7
20260507032057 62 145 0.0 0.0 0.00 0.00 0.00 83 1009.6
20260507032000 62 174 0.0 0.0 0.00 0.00 0.00 83 1009.7
20260507031541 62 241 0.0 0.0 0.00 0.00 0.00 83 1009.6
20260507031058 62 158 0.0 0.0 0.00 0.00 0.00 83 1009.5
20260507030521 62 240 0.0 0.0 0.00 0.00 0.00 83 1009.5
20260507030002 62 211 0.0 0.0 0.00 0.00 0.00 84 1009.3
20260507025527 63 186 0.0 0.0 0.00 0.00 0.00 84 1009.2
20260507025004 63 191 0.0 2.0 0.00 0.00 0.00 85 1009.3
20260507024530 63 198 0.0 2.0 0.00 0.00 0.00 85 1009.2
20260507024053 63 160 0.0 2.0 0.00 0.00 0.00 87 1009.1
20260507023533 64 46 0.0 0.0 0.00 0.00 0.00 88 1009.1
20260507023049 64 135 0.0 0.0 0.00 0.00 0.00 88 1009.1
20260507022531 64 198 0.0 0.0 0.00 0.00 0.00 88 1008.9
20260507022049 64 116 0.0 0.0 0.00 0.00 0.00 88 1008.9
20260507021532 65 185 0.0 1.0 0.00 0.00 0.00 88 1008.6
20260507021052 65 185 0.0 0.0 0.00 0.00 0.00 88 1008.8
20260507020537 65 243 0.0 0.0 0.00 0.00 0.00 88 1008.8
20260507020106 65 143 0.0 0.0 0.00 0.00 0.00 88 1008.7
20260507015522 65 132 0.0 0.0 0.00 0.00 0.00 87 1009.0
20260507015100 65 116 0.0 0.0 0.00 0.00 0.00 87 1009.0
20260507014517 65 121 0.0 0.0 0.00 0.00 0.00 87 1008.7
20260507014055 65 248 0.0 0.0 0.00 0.00 0.00 87 1008.5
20260507013520 66 161 0.0 0.0 0.00 0.00 0.00 87 1008.9
20260507013058 66 260 0.0 0.0 0.00 0.00 0.00 87 1009.0
20260507012523 66 293 0.0 1.0 0.00 0.00 0.00 87 1008.9
20260507012043 66 178 0.0 1.0 0.00 0.00 0.00 87 1008.8
20260507011531 66 108 0.0 0.0 0.00 0.00 0.00 87 1008.9
20260507011010 66 134 0.0 0.0 0.00 0.00 0.00 88 1009.0
20260507010531 66 174 0.0 0.0 0.00 0.00 0.00 88 1009.0
20260507010101 66 92 0.0 0.0 0.00 0.00 0.00 88 1009.0
20260507005522 66 58 0.0 0.0 0.00 0.00 0.00 88 1008.8
20260507005051 66 58 0.0 0.0 0.00 0.00 0.00 88 1008.6
20260507004517 66 58 0.0 0.0 0.00 0.00 0.00 88 1008.6
20260507004046 66 37 0.0 0.0 0.00 0.00 0.00 88 1008.6
20260507003533 67 37 0.0 0.0 0.00 0.00 0.00 88 1008.5
20260507003052 67 37 0.0 0.0 0.00 0.00 0.00 87 1008.3
20260507002516 67 36 0.0 0.0 0.00 0.00 0.00 87 1008.5
20260507002051 67 37 0.0 0.0 0.00 0.00 0.00 87 1008.4
20260507001515 67 37 0.0 0.0 0.00 0.00 0.00 87 1008.2
20260507001036 67 29 0.0 0.0 0.00 0.00 0.00 87 1008.2
20260507000514 67 41 0.0 0.0 0.00 0.00 0.00 87 1008.2
20260507000042 67 50 0.0 0.0 0.00 0.00 0.00 86 1008.1
20260506235517 67 63 0.0 0.0 0.00 0.00 0.00 86 1008.1
20260506235040 68 48 0.0 0.0 0.00 0.00 0.00 86 1008.1
20260506234522 68 73 0.0 0.0 0.00 0.00 0.00 86 1008.0
20260506234046 68 21 0.0 0.0 0.00 0.00 0.00 86 1007.6
20260506233517 68 21 0.0 0.0 0.00 0.00 0.00 86 1007.7
20260506233054 68 21 0.0 0.0 0.00 0.00 0.00 86 1007.9
20260506232512 68 66 0.0 0.0 0.00 0.00 0.00 85 1007.9
20260506232032 68 61 0.0 0.0 0.00 0.00 0.00 85 1007.6
20260506231513 68 62 0.0 0.0 0.00 0.00 0.00 85 1007.6
20260506231040 68 38 0.0 0.0 0.00 0.00 0.00 85 1007.6
20260506230514 69 54 0.0 0.0 0.00 0.00 0.00 85 1007.6
20260506230037 69 54 0.0 0.0 0.00 0.00 0.00 85 1007.7
20260506225514 69 22 0.0 0.0 0.00 0.00 0.00 85 1007.7
20260506225038 69 22 0.0 0.0 0.00 0.00 0.00 84 1007.7
20260506224559 69 5 0.0 0.0 0.00 0.00 0.00 85 1007.6
20260506224041 69 69 0.0 0.0 0.00 0.00 0.00 84 1007.4
20260506223558 69 23 0.0 0.0 0.00 0.00 0.00 84 1007.4
20260506223024 69 23 0.0 0.0 0.00 0.00 0.00 84 1007.5
20260506222600 69 23 0.0 0.0 0.00 0.00 0.00 84 1007.6
20260506222502 69 23 0.0 0.0 0.00 0.00 0.00 84 1007.6
20260506222028 69 20 0.0 0.0 0.00 0.00 0.00 84 1007.6
20260506221547 69 321 0.0 0.0 0.00 0.00 0.00 84 1007.6
20260506221008 69 314 0.0 0.0 0.00 0.00 0.00 84 1007.7
20260506220546 69 25 0.0 0.0 0.00 0.00 0.00 84 1007.6
20260506220007 69 60 0.0 0.0 0.00 0.00 0.00 84 1007.6
20260506215528 69 60 0.0 0.0 0.00 0.00 0.00 84 1007.6
20260506215007 69 52 0.0 0.0 0.00 0.00 0.00 83 1007.5
20260506214528 70 60 0.0 0.0 0.00 0.00 0.00 83 1007.5
20260506214047 70 349 0.0 0.0 0.00 0.00 0.00 83 1007.5
20260506213535 70 61 0.0 0.0 0.00 0.00 0.00 82 1007.4
20260506213052 70 322 0.0 0.0 0.00 0.00 0.00 83 1007.2
20260506212516 70 34 0.0 0.0 0.00 0.00 0.00 83 1007.2
20260506212054 70 37 0.0 0.0 0.00 0.00 0.00 82 1007.2
20260506211517 70 33 0.0 2.0 0.00 0.00 0.00 83 1007.2
20260506211056 70 13 0.0 2.0 0.00 0.00 0.00 82 1007.1
20260506210520 70 298 0.0 2.0 0.00 0.00 0.00 82 1007.2
20260506210049 70 36 0.0 2.0 0.00 0.00 0.00 82 1007.0
20260506205520 70 70 0.0 2.0 0.00 0.00 0.00 82 1007.1
20260506205046 70 329 0.0 2.0 0.00 0.00 0.00 83 1007.1
20260506204514 70 63 0.0 0.0 0.00 0.00 0.00 83 1006.9
20260506204053 69 57 0.0 1.0 0.00 0.00 0.00 83 1006.8
20260506203516 69 55 0.0 1.0 0.00 0.00 0.00 83 1006.9
20260506203047 69 20 0.0 0.0 0.00 0.00 0.00 83 1007.0
20260506202518 70 51 0.0 0.0 0.00 0.00 0.00 82 1007.0
20260506202040 70 59 0.0 2.0 0.00 0.00 0.00 82 1007.1
20260506201528 70 77 0.0 2.0 0.00 0.00 0.00 81 1006.9
20260506201040 71 9 0.0 1.0 0.00 0.00 0.00 81 1007.0
20260506200557 71 321 0.0 1.0 0.00 0.00 0.00 82 1006.9
20260506200042 70 297 0.0 1.0 0.00 0.00 0.00 82 1007.0
20260506195512 70 73 0.0 4.0 0.00 0.00 0.00 82 1007.0
20260506195037 70 56 0.0 5.0 0.00 0.00 0.00 82 1007.0
20260506194514 70 320 0.0 10.0 0.00 0.00 0.00 82 1007.0
20260506194036 70 357 1.0 10.0 0.00 0.00 0.00 81 1007.0
20260506193553 71 95 0.0 7.0 0.00 0.00 0.00 82 1007.1
20260506193044 70 60 0.0 7.0 0.00 0.00 0.00 83 1007.1
20260506192558 70 31 0.0 7.0 0.00 0.00 0.00 83 1007.1
20260506192024 70 335 0.0 1.0 0.00 0.00 0.00 83 1007.1
20260506191559 69 85 0.0 0.0 0.00 0.00 0.00 83 1007.1
20260506191018 69 72 0.0 0.0 0.00 0.00 0.00 83 1007.2
20260506190543 69 64 0.0 0.0 0.00 0.00 0.00 84 1007.2
20260506190027 68 13 0.0 2.0 0.00 0.00 0.00 84 1007.3
20260506185546 68 306 0.0 2.0 0.00 0.00 0.00 85 1007.4
20260506185031 68 34 0.0 2.0 0.00 0.00 0.00 86 1007.5
20260506184551 67 59 0.0 1.0 0.00 0.00 0.00 86 1007.6
20260506184032 67 30 0.0 3.0 0.00 0.00 0.00 86 1007.7
20260506183550 67 84 0.0 6.0 0.00 0.00 0.00 87 1007.7
20260506183031 66 44 0.0 9.0 0.00 0.00 0.00 86 1007.7
20260506182554 66 36 0.0 9.0 0.00 0.00 0.00 87 1007.8
20260506182035 66 53 0.0 4.0 0.00 0.00 0.00 87 1007.7
20260506181554 66 302 0.0 9.0 0.00 0.00 0.00 87 1007.6
20260506181020 66 338 0.0 3.0 0.00 0.00 0.00 87 1007.8
20260506180556 66 68 0.0 2.0 0.00 0.00 0.00 87 1007.9
20260506180018 65 66 0.0 9.0 0.00 0.00 0.00 88 1007.9
20260506175554 65 345 0.0 9.0 0.00 0.00 0.00 88 1008.0
20260506175021 65 323 0.0 5.0 0.00 0.00 0.00 88 1007.9
20260506174558 65 13 0.0 5.0 0.00 0.00 0.00 89 1008.0
20260506174024 65 8 0.0 11.0 0.00 0.00 0.00 89 1008.0
20260506173557 64 47 0.0 11.0 0.00 0.00 0.00 89 1007.9
20260506173026 64 45 0.0 7.0 0.00 0.00 0.00 90 1007.9
20260506172505 64 76 1.0 7.0 0.00 0.00 0.00 90 1007.9
20260506172031 64 326 0.0 5.0 0.00 0.00 0.00 90 1008.0
20260506171555 63 323 0.0 9.0 0.00 0.00 0.00 90 1008.1
20260506171030 63 68 2.0 9.0 0.00 0.00 0.00 90 1008.1
20260506170549 63 323 0.0 8.0 0.00 0.00 0.00 91 1008.1
20260506170026 63 49 0.0 6.0 0.00 0.00 0.00 91 1008.1
20260506165509 63 73 0.0 5.0 0.00 0.00 0.00 92 1008.1
20260506165032 63 65 0.0 5.0 0.00 0.00 0.00 92 1008.1
20260506164549 63 334 0.0 5.0 0.00 0.00 0.00 92 1008.1
20260506164031 62 82 0.0 9.0 0.00 0.00 0.00 92 1008.4
20260506163551 62 47 0.0 9.0 0.00 0.00 0.00 92 1008.3
20260506163030 62 89 0.0 5.0 0.00 0.00 0.00 93 1008.4
20260506162551 62 307 0.0 6.0 0.00 0.00 0.00 93 1008.3
20260506162009 62 306 0.0 8.0 0.00 0.00 0.00 93 1008.2
20260506161533 61 68 1.0 12.0 0.00 0.00 0.00 93 1008.3
20260506161007 61 34 0.0 8.0 0.00 0.00 0.00 93 1008.4
20260506160535 61 37 0.0 8.0 0.00 0.00 0.00 93 1008.3
20260506160015 61 6 0.0 2.0 0.00 0.00 0.00 93 1008.4
20260506155533 61 353 0.0 3.0 0.00 0.00 0.00 94 1008.4
20260506155049 61 340 0.0 3.0 0.00 0.00 0.00 94 1008.4
20260506154537 61 38 0.0 1.0 0.00 0.00 0.00 94 1008.4
20260506154019 61 316 0.0 11.0 0.00 0.00 0.00 94 1008.6
20260506153536 61 46 0.0 11.0 0.00 0.00 0.00 93 1008.7
20260506153052 61 49 0.0 5.0 0.00 0.00 0.00 94 1008.6
20260506152533 61 314 0.0 2.0 0.00 0.00 0.00 93 1008.5
20260506152054 61 336 0.0 1.0 0.00 0.00 0.00 93 1008.6
20260506151518 61 324 0.0 2.0 0.00 0.00 0.00 93 1008.7
20260506151055 61 5 0.0 3.0 0.00 0.00 0.00 93 1008.8
20260506150519 61 40 0.0 3.0 0.00 0.00 0.00 93 1008.9
20260506150056 61 77 0.0 2.0 0.00 0.00 0.00 93 1009.0
20260506145521 60 70 0.0 6.0 0.00 0.00 0.00 93 1009.1
20260506145042 60 317 0.0 6.0 0.00 0.00 0.00 93 1009.3
20260506144520 60 290 0.0 6.0 0.00 0.00 0.00 93 1009.4
20260506144041 60 323 0.0 7.0 0.00 0.00 0.00 93 1009.2
20260506143519 60 70 0.0 9.0 0.00 0.00 0.00 93 1009.2
20260506143040 60 297 0.0 9.0 0.00 0.00 0.00 93 1009.3
20260506142515 61 290 0.0 0.0 0.00 0.00 0.00 93 1009.1
20260506142042 61 59 0.0 0.0 0.00 0.00 0.00 93 1009.0
20260506141559 61 347 0.0 0.0 0.00 0.00 0.00 93 1009.2
20260506141039 61 350 0.0 1.0 0.00 0.00 0.00 92 1009.0
20260506140559 61 52 0.0 2.0 0.00 0.00 0.00 92 1009.0
20260506140501 61 1 0.0 2.0 0.00 0.00 0.00 92 1009.0
20260506140052 61 310 0.0 2.0 0.00 0.00 0.00 92 1009.1
20260506135559 61 315 0.0 2.0 0.00 0.00 0.00 92 1009.2
20260506135503 61 72 0.0 1.0 0.00 0.00 0.00 92 1009.2
20260506135025 61 46 0.0 0.0 0.00 0.00 0.00 92 1009.2
20260506134558 61 308 0.0 7.0 0.00 0.00 0.00 92 1009.4
20260506134023 61 6 0.0 7.0 0.00 0.00 0.00 91 1009.5
20260506133503 61 353 0.0 8.0 0.00 0.00 0.00 91 1009.7
20260506133019 61 23 0.0 8.0 0.00 0.00 0.00 91 1009.8
20260506132541 61 359 0.0 1.0 0.00 0.00 0.00 91 1009.9
20260506132023 61 70 0.0 1.0 0.00 0.00 0.00 91 1009.8
20260506131543 61 39 0.0 1.0 0.00 0.00 0.00 91 1009.5
20260506131026 61 67 0.0 1.0 0.00 0.00 0.00 90 1009.4
20260506130546 62 69 0.0 0.0 0.00 0.00 0.00 90 1009.3
20260506130024 62 42 0.0 0.0 0.00 0.00 0.00 90 1009.2
20260506125541 62 307 0.0 0.0 0.00 0.00 0.00 89 1009.1
20260506125059 62 25 0.0 1.0 0.00 0.00 0.00 89 1009.1
20260506125010 62 47 0.0 1.0 0.00 0.00 0.00 89 1009.1
20260506124541 62 65 0.0 1.0 0.00 0.00 0.00 89 1009.0
20260506124103 62 33 0.0 0.0 0.00 0.00 0.00 88 1009.0
20260506124007 62 32 0.0 0.0 0.00 0.00 0.00 88 1009.1
20260506123546 62 75 0.0 0.0 0.00 0.00 0.00 88 1009.0
20260506123021 62 64 0.0 0.0 0.00 0.00 0.00 87 1009.2
20260506122545 63 20 0.0 0.0 0.00 0.00 0.00 86 1009.2
20260506122032 63 20 0.0 6.0 0.00 0.00 0.00 86 1009.4
20260506121547 63 89 0.0 6.0 0.00 0.00 0.00 86 1009.5
20260506121011 63 48 0.0 8.0 0.00 0.00 0.00 85 1009.6
20260506120547 63 39 0.0 8.0 0.00 0.00 0.00 84 1009.6
20260506120010 64 58 0.0 4.0 0.00 0.00 0.00 84 1009.6
20260506115545 64 316 0.0 5.0 0.00 0.00 0.00 83 1009.5